Location: *
(51.0333°S, 178.4667°E)
Time: 18:25:29
(UTC+00:00)

Cosmos 2278 Rocket - Pass Details

Date: 15 November 2019
Orbit: 841 x 846 km, 71.0° (Epoch: 10 December)

Event Time Altitude Azimuth Distance (km) Brightness Sun altitude
Exits shadow 11:49:06 15° 61° (ENE) 2,163 4.0 -20.5°
Maximum altitude 11:50:49 17° 82° (E) 2,052 4.1 -20.5°
Drops below altitude 10° 11:54:15 10° 119° (ESE) 2,491 5.0 -20.5°
Sets 11:57:36 0° 139° (SE) 3,435 6.2 -20.5°
